This is the latest recevied weather packets stored in our database for station/object KC1IUC-15. If no packets are shown the sender has not sent any weather packets the latest 10 day(s).
| Time | Temp. | Humidity | Pressure | Rain* | Wind** | Luminosity | Snow |
|---|---|---|---|---|---|---|---|
| 1788610503 | 17.22° C | 95% | 1009.6 hPa | 0 mm | - | 33 W/m² | - |
| 1788610203 | 16.67° C | 98% | 1009.9 hPa | 0 mm | - | 40 W/m² | - |
| 1788609903 | 16.67° C | 99% | 1009.6 hPa | 0 mm | - | 39 W/m² | - |
| 1788609603 | 16.11° C | 99% | 1009.6 hPa | 0 mm | - | 37 W/m² | - |
| 1788609333 | 16.11° C | 99% | 1009.6 hPa | 0 mm | - | 54 W/m² | - |
| 1788609003 | 15.56° C | 99% | 1009.3 hPa | 0 mm | - | 60 W/m² | - |
| 1788608703 | 15.56° C | 99% | 1009.6 hPa | 0 mm | - | 51 W/m² | - |
| 1788608403 | 15.56° C | 99% | 1009.6 hPa | 0 mm | - | 40 W/m² | - |
| 1788608103 | 15.56° C | 99% | 1009.3 hPa | 0 mm | - | 32 W/m² | - |
| 1788607803 | 15.56° C | 99% | 1009.3 hPa | 0 mm | - | 31 W/m² | - |
| 1788607503 | 15° C | 98% | 1009.3 hPa | 0 mm | - | 29 W/m² | - |
| 1788607203 | 15° C | 98% | 1009.3 hPa | 0 mm | - | 32 W/m² | - |
| 1788606903 | 14.44° C | 98% | 1008.9 hPa | 0 mm | - | 30 W/m² | - |
| 1788606603 | 14.44° C | 99% | 1009.3 hPa | 0 mm | - | 24 W/m² | - |
| 1788606303 | 13.89° C | 99% | 1008.9 hPa | 0 mm | - | 23 W/m² | - |
| 1788606003 | 13.89° C | 99% | 1009.3 hPa | 0 mm | - | 19 W/m² | - |
| 1788605703 | 13.89° C | 99% | 1009.3 hPa | 0 mm | - | 14 W/m² | - |
| 1788605403 | 13.89° C | 99% | 1008.9 hPa | 0 mm | - | 12 W/m² | - |
| 1788605103 | 13.89° C | 99% | 1008.9 hPa | 0 mm | - | 11 W/m² | - |
| 1788604803 | 13.89° C | 99% | 1008.9 hPa | 0 mm | - | 8 W/m² | - |
| 1788604503 | 13.89° C | 99% | 1008.9 hPa | 0 mm | - | 6 W/m² | - |
| 1788604203 | 13.89° C | 99% | 1008.9 hPa | 0 mm | - | 4 W/m² | - |
| 1788603903 | 13.89° C | 99% | 1008.6 hPa | 0 mm | - | 3 W/m² | - |
| 1788603603 | 13.89° C | 99% | 1008.6 hPa | 0 mm | - | 1 W/m² | - |
| 1788603303 | 13.89° C | 99% | 1008.9 hPa | 0 mm | - | 0 W/m² | - |
* Rain latest hour (hover to see other rain measurements)
** Current wind speed in m/s (hover to see current wind gust speed)